Вернуться в каталог

DELTA 1 DEB

АктивенSSO
NORAD 10868·DEBRIS·🇺🇸 United States

Запущен Jul 29, 1976 с Vandenberg Space Force Base

Loading…

Ближайшие Пролёты (ближайшие 24 часа)

TLE

СвежийSource: Space-Track

Эпоха: Sep 13, 2026, 10:54 UTC

1 10868U 76077CW  26256.45417334  .00000381  00000-0  31600-2 0  9996
2 10868 102.4017 104.4973 0102091 271.4168 164.8735 12.39696619253781

Отслеживайте DELTA 1 DEB в реальном времени с AllMySat

Download on the App Store